Location: Mason Neck State Park
(38.6428°N, 77.1981°W)
Time: 05:26:23
(UTC-05:00)

Daily predictions for brighter satellites

Satellite Brightness Start Highest point End
(mag) Time Altitude Azimuth Time Altitude Azimuth Time Altitude Azimuth
Cosmos 2278 Rocket 2.9 04:02:21 49° E 04:02:21 49° E 04:07:00 10° SE
Cosmos 2173 Rocket 4.4 04:02:10 43° NNE 04:04:02 60° E 04:10:17 10° SSE
Cosmos 1459 Rocket 3.9 04:18:05 67° NNE 04:18:55 80° E 04:24:59 10° S
Cosmos 2100 Rocket 3.9 04:22:59 72° NNW 04:23:42 87° W 04:30:05 10° S
Atlas Centaur 2 3.5 04:25:37 41° SSW 04:27:31 48° S 04:35:36 10° ESE
NOSS 0 Rocket 4.4 04:30:16 47° N 04:30:16 47° N 04:34:51 10° NNE
Hubble Space Telescope 3.5 04:28:50 11° SSE 04:28:51 11° SSE 04:29:59 10° SE
CZ-4B DEB 4.1 04:25:15 10° NNE 04:30:50 89° WNW 04:31:08 81° SSW
Cosmos 1802 Rocket 3.9 04:28:37 16° N 04:33:40 88° E 04:39:55 10° S
Cosmos 2237 Rocket 2.7 04:38:45 45° NNW 04:38:45 45° NNW 04:42:54 10° NNE
Lacrosse 5 rocket 3.7 04:33:37 10° S 04:37:21 25° ESE 04:41:10 10° ENE
Cosmos 2333 Rocket 3.7 04:40:56 23° N 04:40:56 23° N 04:43:18 10° N
Delta 2 Rocket 4.1 04:39:31 47° SE 04:39:31 47° SE 04:43:10 10° E
IRS-1C Rocket 4.0 04:34:36 10° NNE 04:39:54 86° ESE 04:45:09 10° SSW
CZ-2C R/B 3.9 04:44:29 10° SSE 04:48:59 68° ENE 04:51:15 28° N
Cosmos 1470 Rocket 3.9 04:46:13 10° S 04:50:38 65° E 04:55:04 10° NNE
Okean-O 4.0 04:47:02 10° NNE 04:51:12 39° E 04:55:21 10° SSE
IDEFIX/ARIANE 42P 4.4 04:48:57 10° NE 04:53:31 31° E 04:58:04 10° SSE
Cosmos 1302 Rocket 3.9 04:54:36 61° W 04:54:49 62° WNW 05:00:00 10° NNE
ASTRO E2 4.5 04:59:21 21° S 04:59:21 21° S 05:02:10 10° SE
Cosmos 2123 Rocket 3.9 04:53:31 10° S 04:59:43 84° W 05:06:01 10° N
Cosmos 2061 Rocket 4.1 04:56:42 10° NNW 05:02:54 53° W 05:09:06 10° SSW
Cosmos 1725 Rocket 3.9 04:56:59 10° N 05:03:13 89° E 05:09:23 10° S
Cosmos 2219 Rocket 4.1 05:06:55 14° NNW 05:06:55 14° NNW 05:08:09 10° N
SL-16 R/B 2.1 05:05:04 10° SSW 05:10:42 77° WNW 05:16:25 10° NNE
Meteor 1-26 Rocket 4.2 05:07:25 10° N 05:13:00 85° E 05:18:38 10° S
USA 229 DEB 4.1 05:09:47 13° NNW 05:16:18 67° NE 05:23:36 10° SE
USA 229 4.1 05:09:52 13° NNW 05:16:24 67° NE 05:23:42 10° SE
Cosmos 1486 Rocket 4.1 05:18:19 25° NW 05:21:09 52° WSW 05:26:17 10° S
Meteor 2-10 Rocket 4.3 05:19:33 29° WNW 05:21:12 35° W 05:26:23 10° SSW
Abrixas rocket 4.1 05:22:26 18° N 05:22:26 18° N 05:24:16 10° NNE
Cosmos 2016 Rocket 4.3 05:21:17 10° NNW 05:26:57 40° W 05:32:34 10° SSW
CZ-4B R/B 4.0 05:26:40 10° N 05:31:30 30° WNW 05:36:19 10° SW
Cosmos 2242 Rocket 4.0 05:31:12 20° NW 05:33:44 38° W 05:37:48 10° SSW
USA 32 3.9 05:28:52 10° S 05:34:04 73° W 05:39:19 10° N
Cosmos 1354 Rocket 3.9 05:29:11 10° NNW 05:34:26 79° WSW 05:39:39 10° SSE
Cosmos 1933 Rocket 3.8 05:31:01 10° SSW 05:35:09 44° W 05:39:21 10° N
Cosmos 2297 3.7 05:30:16 13° NNW 05:35:26 61° WSW 05:41:02 10° S
COSMO-SKYMED 1 2.5 05:32:42 10° S 05:37:01 72° WSW 05:41:22 10° NNW
Cosmos 1892 3.4 05:34:01 10° SW 05:37:25 31° WNW 05:40:50 10° NNW
DELTA 2 R/B (1) 3.6 05:35:12 24° W 05:38:41 81° N 05:44:16 10° E
CZ-2C R/B 3.0 05:33:35 10° NNE 05:38:45 65° E 05:43:48 10° S
Cosmos 2369 Rocket 4.1 05:36:26 10° N 05:41:11 27° ENE 05:45:54 10° ESE
ISS -2.8 05:42:08 26° WSW 05:42:57 29° SW 05:45:50 10° SSE
Cosmos 2278 Rocket 3.4 05:44:17 19° W 05:45:04 19° W 05:48:56 10° SW
USA 215 3.3 05:47:22 10° NE 05:53:56 85° SE 06:00:29 10° SW
DMSP B5D1-3 4.5 05:48:52 10° S 05:53:59 80° WSW 05:59:09 10° NNW
CZ-3B R/B 2.0 05:51:52 10° SW 05:55:04 90° SSE 05:56:48 10° NE
EO 1 Del DPAF 4.0 05:55:45 10° SSW 05:59:13 32° W 06:02:42 10° NNW
Hubble Space Telescope 3.0 06:06:26 10° SW 06:09:22 19° S 06:12:18 10° SE
Cosmos 1408 3.0 06:06:59 10° SSW 06:10:32 42° W 06:14:07 10° N
SMAP 4.2 06:07:44 10° NNE 06:12:16 50° E 06:16:46 10° S
Cosmos 2084 Rocket 3.1 06:08:45 10° NW 06:12:36 80° WSW 06:16:28 10° SSE
Meteor 1-27 Rocket 4.4 06:09:17 10° N 06:15:07 64° E 06:20:49 10° SSE
Intercosmos 25 3.4 06:12:47 10° NNW 06:15:57 46° W 06:19:57 10° S
Lacrosse 5 rocket 2.0 06:11:57 10° WSW 06:16:24 45° NW 06:20:55 10° NNE
Atlas Centaur 2 4.0 06:09:10 10° W 06:16:53 42° SSW 06:24:38 10° SE
Cosmos 2233 Rocket 4.5 06:11:55 10° NNW 06:17:26 36° W 06:22:56 10° SSW
Meteor 1-10 Rocket 4.4 06:13:56 10° NNW 06:19:49 70° W 06:25:43 10° S
Delta 2 Rocket 4.2 06:16:57 10° W 06:21:07 51° S 06:25:52 10° ESE
BREEZE-M DEB (TANK) 4.1 06:19:09 10° WNW 06:22:28 34° NNE 06:26:39 10° E
Cosmos 1943 3.5 06:16:58 10° SSW 06:22:38 75° ESE 06:28:20 10° NNE
USA 267 4.4 06:18:29 10° E 06:24:18 36° NNE 06:30:08 10° NNW
Okean-O 4.0 06:24:21 10° NNW 06:27:22 18° WNW 06:30:23 10° WSW
Cosmos 1943 Rocket 3.4 06:25:56 10° N 06:31:21 43° ENE 06:36:43 10° SE
Cosmos 2221 Rocket 3.8 06:27:01 10° NNW 06:31:21 52° W 06:35:42 10° S
